Regional Weather Roundup
Issued by NWS

Home | Current Version | Previous Version | Text Only | Print | Product List | Glossary On
Versions: 1 2 3 4 5 6 7 8 9 10 11 12 13 14 15 16 17 18 19 20 21 22 23 24 25 26 27 28 29 30 31 32 33 34 35 36 37 38 39 40 41 42 43 44 45 46 47 48 49 50
000
ASUS43 KLMK 080310
RWRKY
KENTUCKY REGIONAL WEATHER ROUNDUP
NATIONAL WEATHER SERVICE LOUISVILLE KY
1100 PM EDT TUE JUL 07 2015

NOTE "FAIR" INDICATES FEW OR NO CLOUDS BELOW 12,000 FEET
WITH NO SIGNIFICANT WEATHER AND/OR OBSTRUCTIONS TO VISIBILITY.

KYZ001>023-026-027-061>063-070>075-080400-
WESTERN AND SOUTH CENTRAL KENTUCKY

CITY           SKY/WX    TMP DP  RH WIND       PRES   REMARKS
PADUCAH        CLOUDY    73  70  90 SW6       30.03R
HENDERSON      CLOUDY    73  70  88 SW5       30.00R
OWENSBORO      CLOUDY    73  71  93 SW7       30.02R
HOPKINSVILLE   LGT RAIN  71  69  95 S8        30.09R
BOWLING GREEN  LGT RAIN  73  70  90 SW10G25   30.08R FOG
GLASGOW        RAIN      70  70 100 S5        30.08R
$$

KYZ024-025-028>034-038-045-046-053-080400-
NORTH CENTRAL KENTUCKY

CITY           SKY/WX    TMP DP  RH WIND       PRES   REMARKS
LOUISVILLE/SDF LGT RAIN  74  72  93 S6        30.00R
LOUISVILLE/LOU CLOUDY    74  72  93 CALM      30.01S
FORT KNOX      CLOUDY    71  69  93 SW7       30.01R
$$

KYZ035>037-039>044-047>052-055>060-089>105-080400-
NORTHEAST KENTUCKY

CITY           SKY/WX    TMP DP  RH WIND       PRES   REMARKS
LEXINGTON      LGT RAIN  71  69  93 S7        30.04R
COVINGTON      CLOUDY    70  68  93 NW12      30.02R
FRANKFORT      LGT RAIN  72  68  87 S3        30.01S FOG
$$

KYZ054-064>069-076>088-106>120-080400-
SOUTHEAST KENTUCKY

CITY           SKY/WX    TMP DP  RH WIND       PRES   REMARKS
JACKSON        LGT RAIN  71  68  90 CALM      30.08F
LONDON         LGT RAIN  73  66  78 W3        30.10R
SOMERSET       CLOUDY    70  70 100 NW3       30.11R
MIDDLESBORO    CLOUDY    74  72  95 CALM      30.11S
MONTICELLO     CLOUDY    72  71  96 SW3       30.14R
$$



USA.gov is the U.S. government's official web portal to all federal, state and local government web resources and services.